Weather Roundup
Issued by NWS Chicago, IL

Home | Current Version | Previous Version | Graphics & Text | Print | Product List | Glossary On
Versions: 1 2 3 4 5 6 7 8 9 10 11 12 13 14 15 16 17 18 19 20 21 22 23 24 25 26 27 28 29 30 31 32 33 34 35 36 37 38 39 40 41 42 43 44 45 46 47 48 49 50
000
NZUS59 KLOT 050203
HRRLOT

CHICAGO AREA WEATHER ROUNDUP
NATIONAL WEATHER SERVICE CHICAGO/ROMEOVILLE IL
900 PM CDT WED MAY 04 2016

NOTE: "FAIR" INDICATES FEW OR NO CLOUDS BELOW 12,000 FEET WITH NO
SIGNIFICANT WEATHER AND/OR OBSTRUCTIONS TO VISIBILITY.

* THESE STATIONS ARE NOT UNDER NWS QUALITY CONTROL. THEY ALSO MAY NOT
  REPORT WEATHER SUCH AS PRECIPITATION OR FOG.

ILZ005-006-012>014-019>023-050300-
NORTHEAST ILLINOIS

CITY           SKY/WX    TMP DP  RH WIND       PRES   REMARKS
OHARE          MOCLDY    44  35  70 N15       29.87R
MIDWAY         CLOUDY    45  33  63 N18G25    29.86R
AURORA         CLEAR     46  38  73 NE9       29.87R
LANSING*       CLOUDY    44  35  70 N9G18     29.86S
WAUKEGAN       CLOUDY    42  35  76 N9G22     29.87R
DUPAGE AIRPORT PTCLDY    44  35  70 NE9       29.86R
WHEELING       MOCLDY    43  34  70 N14G22    29.88R
$$

WIZ051-052-058>065-066-070>072-050300-
SOUTHEAST WISCONSIN

CITY           SKY/WX    TMP DP  RH WIND       PRES   REMARKS
MILWAUKEE      PTCLDY    41  34  76 N20G25    29.89R
KENOSHA*       CLEAR     41  34  76 N10       29.88R
RACINE*        CLEAR     41  34  76 N16       29.90R
BURLINGTON     MOCLDY    42  34  74 NE6       29.89R
WAUKESHA       MOCLDY    41  36  81 NE6       29.90R
$$

INZ001>003-010>013-019-020-050300-
NORTHWEST INDIANA

CITY           SKY/WX    TMP DP  RH WIND       PRES   REMARKS
GARY*          MOCLDY    45  41  87 N16G32    29.86R
MICHIGAN CITY* NOT AVBL
RENSSELAER*    NOT AVBL
VALPARAISO     LGT RAIN  40  37  89 N14G24    29.82R
$$

LMZ740>746-050300-
SOUTHERN LAKE MICHIGAN

STATION/POSITION TIME  SKY/WX   TEMP WIND        PRES    VSBY
                                AIR  DIR/SP/G
                 (UTC)          (F)  (DEG/KT/KT) (MB)    (MI)
HARRISON CRIB    0100            44  350/ 19/ 21   N/A
BURNHAM HARBOR   0200            43  340/ 15/ 18   N/A
CALUMET HARBOR   0100                            1010.4R
BURNS HARBOR     0110            44  360/ 19     1010.8R
MICHIGAN CITY    0100            42  340/ 28/ 30   N/A
$$

ABBREVIATIONS USED IN REMARKS
   TC - TEMPERATURE IN CELSIUS
  WCI - WIND CHILL INDEX
   HX - HEAT INDEX
  VSB - VISIBILITY
$$




USA.gov is the U.S. government's official web portal to all federal, state and local government web resources and services.